Regional Weather Roundup
Issued by NWS Cleveland, OH

Home | Current Version | Previous Version | Text Only | Print | Product List | Glossary Off
Versions: 1 2 3 4 5 6 7 8 9 10 11 12 13 14 15 16 17 18 19 20 21 22 23 24 25 26 27 28 29 30 31 32 33 34 35 36 37 38 39 40 41 42 43 44 45 46 47 48 49 50

000
ASUS41 KCLE 191610
RWRCLE
OHIO REGIONAL WEATHER ROUNDUP
NATIONAL WEATHER SERVICE WILMINGTON, OH
1200 PM EDT FRI SEP 19 2014

NOTE: "FAIR" INDICATES FEW OR NO CLOUDS BELOW 12,000 FEET WITH NO
SIGNIFICANT WEATHER AND/OR OBSTRUCTIONS TO VISIBILITY.

OHZ001>008-015>018-024>027-034-035-043-044-191700-
   NORTHWEST OHIO

CITY           SKY/WX    TMP DP  RH WIND       PRES   REMARKS
DEFIANCE       SUNNY     63  51  65 S7        30.24F
FINDLAY        SUNNY     66  49  54 NE9       30.23F
TOLEDO EXPRESS SUNNY     64  50  60 NE3       30.23F
TOLEDO METCALF MOSUNNY   64  50  60 VRB7      30.25F
LIMA           SUNNY     66  50  56 E10       30.23F
$$

OHZ009>014-019>023-028>033-038-089-191700-
   NORTHEAST OHIO

CITY           SKY/WX    TMP DP  RH WIND       PRES   REMARKS
CLE-HOPKINS    MOSUNNY   64  47  53 E5        30.26F
CLE-LAKEFRONT  MOSUNNY   65  45  48 NE3       30.24F
CUY CO. ARPT   MOSUNNY   61  50  67 SE6       30.26S
LORAIN-ELYRIA  MOSUNNY   67  48  50 VRB5      30.25F
ASHTABULA      SUNNY     61  47  59 SE8       30.28F
AKRON-CANTON   MOSUNNY   64  46  52 E6        30.24F
WOOSTER        SUNNY     65  47  52 E5        30.24F
MANSFIELD      SUNNY     63  46  54 E5        30.24F
YOUNGSTOWN     MOSUNNY   61  49  64 E5        30.26S
$$

OHZ042-051>053-060>062-070>072-077>081-191700-
  SOUTHWEST OHIO

CITY           SKY/WX    TMP DP  RH WIND       PRES   REMARKS
CINC-COVINGTON MOSUNNY   69  49  48 E9        30.19R
CINC-LUNKEN    SUNNY     70  52  52 E10       30.19F
HAMILTON       SUNNY     69  52  54 E10       30.20F
DAYTON         MOSUNNY   67  50  54 SE10      30.22F
WRIGHT-PAT AFB MOSUNNY   67  51  55 NE8       30.21S
DAYTON GENERAL SUNNY     67  54  63 NE10      30.20S
WILMINGTON     SUNNY     67  51  56 NE8       30.20F
$$

OHZ036-037-039>041-045>050-054>059-063>069-073>076-082>088-191700-
  CENTRAL AND SOUTHEAST OHIO

CITY           SKY/WX    TMP DP  RH WIND       PRES   REMARKS
COLUMBUS       SUNNY     70  48  45 E9        30.21F
OSU AIRPORT    SUNNY     67  46  47 NE9       30.22F
BOLTON FIELD   SUNNY     66  52  59 NE6       30.22F
RICKENBACK AFB SUNNY     66  51  57 NE10      30.21S
NEWARK         SUNNY     67  49  52 MISG      30.21F
MARION         SUNNY     66  46  48 NE3       30.23F
LANCASTER      SUNNY     69  51  52 VRB5      30.21F
ZANESVILLE     SUNNY     67  49  52 E9        30.21F
NEW PHILLY     SUNNY     68  51  54 N6        30.23F
$$



USA.gov is the U.S. government's official web portal to all federal, state and local government web resources and services.